Regional Weather Roundup
Issued by NWS

Home | Current Version | Previous Version | Graphics & Text | Print | Product List | Glossary On
Versions: 1 2 3 4 5 6 7 8 9 10 11 12 13 14 15 16 17 18 19 20 21 22 23 24 25 26 27 28 29 30 31 32 33 34 35 36 37 38 39 40 41 42 43 44 45 46 47 48 49 50
000
ASUS43 KLOT 111606
RWRIL

ILLINOIS REGIONAL WEATHER ROUNDUP
NATIONAL WEATHER SERVICE CHICAGO/ROMEOVILLE IL
1100 AM CDT FRI JUL 11 2014

NOTE: "FAIR" INDICATES FEW OR NO CLOUDS BELOW 12,000 FEET WITH NO
SIGNIFICANT WEATHER AND/OR OBSTRUCTIONS TO VISIBILITY.

* THESE STATIONS ARE NOT UNDER NWS QUALITY CONTROL. THEY ALSO MAY NOT
  REPORT WEATHER SUCH AS PRECIPITATION OR FOG.

ILZ001-002-007-009-015-016-024-111700-
NORTHWEST ILLINOIS

CITY           SKY/WX    TMP DP  RH WIND       PRES   REMARKS
MOLINE         PTSUNNY   75  60  59 S12       30.15S
STERLING*      PTSUNNY   73  59  60 S6        30.19S
SAVANNA*       CLOUDY    73  58  59 S7        30.18R
$$

ILZ003-004-008-010-011-017-018-111700-
NORTH CENTRAL ILLINOIS

CITY           SKY/WX    TMP DP  RH WIND       PRES   REMARKS
ROCKFORD       PTSUNNY   76  56  49 S14       30.20S
FREEPORT*      PTSUNNY   71  57  61 S9        30.21R
ROCHELLE*      MOSUNNY   75  55  49 S12       30.20F
DE KALB*       SUNNY     75  57  54 S13       30.21S
PERU*          MOSUNNY   77  57  49 SE10      30.19F
$$

ILZ005-006-012>014-019>023-111700-
NORTHEAST ILLINOIS

CITY           SKY/WX    TMP DP  RH WIND       PRES   REMARKS
CHICAGO-OHARE  MOSUNNY   77  52  41 SW7       30.20S
CHICAGO-MIDWAY MOSUNNY   78  51  38 VRB3      30.20S
AURORA         SUNNY     77  56  48 S9        30.21S
LANSING*       SUNNY     76  51  42 SW3       30.22R
JOLIET*        SUNNY     76  52  42 S8        30.21F
WAUKEGAN       SUNNY     76  57  51 SE7       30.18F
DUPAGE AIRPORT SUNNY     77  56  48 S9        30.20F
KANKAKEE*      SUNNY     76  56  49 E3        30.22S
WHEELING       SUNNY     78  54  43 SE7       30.21F
MORRIS*        SUNNY     77  57  50 SE7       30.21S
ROMEOVILLE*    SUNNY     76  54  47 SW8       30.21S
NORTHERLY ISL    N/A     72  61  68 E7          N/A
$$

LMZ740>746-111700-
SOUTHERN LAKE MICHIGAN

STATION/POSITION SKY/WX   TEMP    WIND        PRES    VSBY  WAVE
                          AIR SEA DIR/SP/G                  HT/PER
                          (F)     (DEG/KT/KT) (MB)    (MI)  (FT/S)
SOUTHERN BUOY              62 59  170/  6/  8 1023.2R         0
WAUKEGAN HARBOR            70     140/ 10/ 11 1023.4F
HARRISON CRIB              69     130/ 10/ 11   N/A
BURNHAM HARBOR             72      90/  8       N/A
CALUMET HARBOR             73      70/  6/  7 1023.8R
MICHIGAN CITY              74     100/  2/  6   N/A
$$

ILZ025>027-034>036-040-047-049-050-058-095>099-111700-
WEST-CENTRAL ILLINOIS

CITY           SKY/WX    TMP DP  RH WIND       PRES   REMARKS
QUINCY         SUNNY     79  62  56 S12       30.14F HX  80
GALESBURG*     PTSUNNY   74  63  67 S7        30.18R
MACOMB*        MOSUNNY   76  63  63 S10       30.19S
JACKSONVILLE*  SUNNY     80  64  56 S10       30.18F HX  82
PITTSFIELD*    SUNNY     79  64  60 S8        30.17F HX  80
$$

ILZ028>032-037-038-041>044-048-051>054-059>061-111700-
CENTRAL ILLINOIS

CITY           SKY/WX    TMP DP  RH WIND       PRES   REMARKS
PONTIAC          N/A     77  61  57 S6        30.21S
BLOOMINGTON    SUNNY     75  58  55 S9        30.23S
DECATUR        SUNNY     79  62  56 S7        30.21S HX  80
PEORIA         SUNNY     78  61  55 S9        30.18F HX  80
LACON*         MOSUNNY   76  58  54 SE8       30.18F
LINCOLN*       SUNNY     79  62  55 S7        30.18S HX  80
SPRINGFIELD    SUNNY     80  63  55 S7        30.19F HX  81
TAYLORVILLE    SUNNY     77  63  61 S7        30.20S
$$

ILZ033-039-045-046-055>057-062-063-111700-
EAST-CENTRAL ILLINOIS

CITY           SKY/WX    TMP DP  RH WIND       PRES   REMARKS
CHAMPAIGN      SUNNY     78  60  53 S6        30.23R
RANTOUL*       SUNNY     78  56  47 SE5       30.23S
MATTOON        SUNNY     79  58  48 S7        30.21R HX  80
PARIS*         SUNNY     78  60  53 CALM      30.22S HX  80
$$

ILZ079-100>102-111700-
SOUTHWEST ILLINOIS

CITY           SKY/WX    TMP DP  RH WIND       PRES   REMARKS
ALTON          SUNNY     81  66  61 SE7       30.19S HX  83
BELLEVILLE     SUNNY     81  66  60 VRB3      30.18S HX  83
CAHOKIA*       SUNNY     82  65  56 S7        30.18S HX  84
SPARTA*        SUNNY     79  64  61 SE6       30.20S HX  81
$$

ILZ064>066-069>071-074>076-080>082-084>086-088>090-092>094-111700-
SOUTH-CENTRAL ILLINOIS

CITY           SKY/WX    TMP DP  RH WIND       PRES   REMARKS
CARBONDALE     SUNNY     82  64  54 VRB3      30.19R HX  83
CAIRO*         SUNNY     85  65  51 S5        30.18S HX  87
MARION         SUNNY     82  64  54 S7        30.20S HX  84
MT. VERNON     SUNNY     82  64  54 SE3       30.21S HX  84
CENTRALIA*     SUNNY     88  59  37 SE3       30.20S HX  87
SALEM*         SUNNY     82  63  51 S7        30.20S HX  83
METROPOLIS*    SUNNY     83  61  47 CALM      30.18R HX  84
$$

ILZ067-068-072-073-078-083-087-091-111700-
SOUTHEAST ILLINOIS

CITY           SKY/WX    TMP DP  RH WIND       PRES   REMARKS
FLORA*         SUNNY     79  61  53 CALM      30.21R HX  80
HARRISBURG*    SUNNY     80  65  61 CALM      30.20S HX  82
ROBINSON*      SUNNY     82  61  49 SE3       30.22R HX  83
CARMI*         SUNNY     82  67  59 CALM      30.19S HX  84
$$

ABBREVIATIONS USED IN REMARKS
   TC - TEMPERATURE IN CELSIUS
  WCI - WIND CHILL INDEX
   HX - HEAT INDEX
  VSB - VISIBILITY
$$



USA.gov is the U.S. government's official web portal to all federal, state and local government web resources and services.